Powrót do katalogu

CZ-4C R/B

AktywnyLEO
NORAD 54701·ROCKET BODY·🇨🇳 China

Wystrzelony Dec 12, 2022 z Jiuquan Satellite Launch Center

Loading…

Następne Przeloty (najbliższe 24 godziny)

TLE

ŚwieżeSource: Space-Track

Epoka: Sep 14, 2026, 16:09 UTC

1 54701U 22169C   26257.67334885  .00000088  00000-0  58772-4 0  9992
2 54701  59.9549 137.0766 0091694 137.6638 223.1532 14.51763500199114

Śledź CZ-4C R/B w czasie rzeczywistym z AllMySat

Download on the App Store